Location: Lombard
(41.8800°N, 88.0080°W)
Time: 22:43:54
(UTC-05:00)

A-11 Canister half - Pass Details

Date: 03 February 2023
Orbit: 1512 x 1687 km, 47.2° (Epoch: 20 March)

Event Time Altitude Azimuth Distance (km) Brightness Sun altitude
Rises 10:12:37 0° 222° (SW) 4,869 11.8 26.1°
Reaches altitude 10° 10:15:50 10° 219° (SW) 3,863 11.5 26.4°
Maximum altitude 10:25:24 60° 143° (SE) 1,787 10.5 27.2°
Drops below altitude 10° 10:34:39 10° 67° (ENE) 3,739 11.1 28.0°
Sets 10:37:43 0° 63° (ENE) 4,705 11.5 28.2°
